Regional Weather Roundup
Issued by NWS Grand Forks, ND

Home | Current Version | Previous Version | Graphics & Text | Print | Product List | Glossary On
Versions: 1 2 3 4 5 6 7 8 9 10 11 12 13 14 15 16 17 18 19 20 21 22 23 24 25 26 27 28 29 30 31 32 33 34 35 36 37 38 39 40 41 42 43 44 45 46 47 48 49 50
000
ASUS43 KFGF 232131
RWRFGF
PRAIRIE TO PINES  WEATHER ROUNDUP
NATIONAL WEATHER SERVICE EASTERN NORTH DAKOTA/GRAND FORKS ND
400 PM CDT WED MAY 23 2018

 **SATELLITE DATA USED TO AUGMENT SKY COVER AT AUTOMATED STATIONS**
 *****  WEATHER ACROSS EASTERN NORTH DAKOTA  *****

CITY           SKY/WX    TMP DP  RH WIND       PRES   REMARKS
GRAND FORKS    CLOUDY    82  59  45 SE21G30   29.94F
GRAND FRKS AFB PTSUNNY   82  60  46 SE14      29.95F
GRAND FRKS NWS   N/A     84  62  46 S15       29.92F
DEVILS LAKE    FAIR      79  59  50 SE17      29.94F
FARGO          FAIR      77  62  59 S17       29.97F
WAHPETON ARPT  FAIR      72  59  64 S12       29.99S
$$

 ***** WEATHER ACROSS CENTRAL AND WESTERN NORTH DAKOTA  *****

CITY           SKY/WX    TMP DP  RH WIND       PRES   REMARKS
BISMARCK       PTSUNNY   79  65  62 E10       29.87F
MINOT          FAIR      83  56  39 SE18G25   29.86F
JAMESTOWN      PTSUNNY   73  65  75 SE16      29.93F
MINOT AFB      FAIR      82  56  40 SE16G29   29.85F
GARRISON         N/A     77  62  59 S7        29.86F
WILLISTON      LGT RAIN  69  61  75 SE10      29.87F
DICKINSON      CLOUDY    73  59  61 SE17      29.86F
HETTINGER      FAIR      71  61  70 SE12      29.89F
$$

 *****  OTHER AIRPORT OBSERVATIONS IN OUR AREA  *****

CITY           SKY/WX    TMP DP  RH WIND       PRES   REMARKS
WALHALLA       FAIR      84  57  39 SE18      29.92F
GRAFTON AIRPOR FAIR      81  59  47 S17G24    29.96S
VALLEY CITY AR MOCLDY    72  72 100 SE10      29.97F
CANDO          FAIR      81  55  41 SE22G30   29.95F
CAVALIER APRT    N/A     84  55  37 SE12G18   29.92F
GWINNER          N/A     79  63  57 SE24      29.94F
SHEYENNE NWR     N/A     71  65  80 S8        29.95S
ROLLA          FAIR      82  54  36 SE23      29.94F
 ***** THE ABOVE OBSERVATIONS ARE NON NWS ARE NOT QUALITY
       CONTROLLED AND MAY MIS-REPORT RAIN FOR SNOW...
$$

  *****  WEATHER ACROSS NORTHERN MINNESOTA  *****

CITY           SKY/WX    TMP DP  RH WIND       PRES   REMARKS
FLAG ISLAND    FAIR      79  52  38 SE5       30.02S
WARROAD        FAIR      77  61  57 NE10      30.02F
ROSEAU         FAIR      84  54  34 S8        30.00F
HALLOCK        FAIR      86  50  28 SE17      29.94F
THF RVR FALLS  FAIR      83  57  41 S17       30.00F
BAUDETTE       FAIR      83  54  36 VRB6G18   30.02F
WASKISH          N/A     81  57  44 W5        30.04S
CROOKSTON      FAIR      81  57  44 S16       29.97F
STEPHEN NDAWN    N/A     86  55  35 S16         N/A
GREENBUSH NDAW   N/A     84  54  34 S8          N/A
$$
  *****  WEATHER ACROSS CENTRAL AND WEST MINNESOTA  *****

CITY           SKY/WX    TMP DP  RH WIND       PRES   REMARKS
FOSSTON        FAIR      81  55  41 SE14      30.01F
BEMIDJI        PTSUNNY   80  58  46 S9        30.03F
PARK RAPIDS    FAIR      80  61  52 S13G23    30.04F
ELBOW LAKE     FAIR      69  62  78 E15       30.01S
WADENA         FAIR      75  63  64 SE13      30.03
DETROIT LAKES  FAIR      75  59  57 SE10      30.02F
MOORHEAD       FAIR      79  59  50 SE14      29.98F
FERGUS FALLS   FAIR      73  59  60 S10       29.97R
MORRIS MN      FAIR      75  66  73 SE14      30.00S
STAPLES        FAIR      73  61  64 SE7       30.05F
$$
  *****  WEATHER ELSEWHERE ACROSS MINNESOTA  *****

CITY           SKY/WX    TMP DP  RH WIND       PRES   REMARKS
DULUTH         FAIR      80  57  45 S5        30.09F
INTRNTL FALLS  FAIR      83  53  35 E5        30.03F
ELY            FAIR      81  46  30 SW8       30.07S
CLOQUET        FAIR      81  54  39 S7        30.08F
WHEATON        FAIR      75  61  60 SE22      29.99S
BRAINERD       FAIR      78  61  55 S8        30.07F
HIBBING        FAIR      80  54  40 S7        30.07F
ALEXANDRIA     LGT RAIN  68  62  81 SE12      30.04F
SAINT CLOUD    PTSUNNY   73  59  61 S8        30.10R
MINNEAPOLIS    CLOUDY    80  60  50 SE10      30.07F
$$

  *****  WEATHER ACROSS SOUTH DAKOTA  *****

CITY           SKY/WX    TMP DP  RH WIND       PRES   REMARKS
SIOUX FALLS    PTSUNNY   85  63  47 S18G30    29.95F
BROOKINGS      FAIR      84  67  56 S13       29.97F
WATERTOWN      PTSUNNY   79  66  64 SE17G28   29.96F
HURON          FAIR      86  62  44 S26G38    29.88F
SISSETON         N/A     74  65  73 S20G29    29.97S
ABERDEEN       FAIR      85  66  53 SE22G33   29.90F
MITCHELL       FAIR      82  64  54 SE23G35   29.90F
PIERRE         FAIR      82  67  60 W8        29.85F
MOBRIDGE       FAIR      83  68  60 S15       29.83F
RAPID CITY     FAIR      76  59  55 SE14      29.88F
$$

  *****  SOME WEATHER IN NEARBY STATES *****

CITY           SKY/WX    TMP DP  RH WIND       PRES   REMARKS
GLASGOW MT     CLOUDY    66  60  81 NE14      29.85S
GREAT FALLS MT CLOUDY    67  51  56 SE6       29.88F
CHEYENNE WY    FAIR      69  48  47 S12       30.04S
SCOTTSBLUFF NE FAIR      79  56  45 SE14      29.93S
OMAHA NE       FAIR      92  61  35 S16G31    29.98F HX  92
DES MOINES IA  FAIR      85  67  54 S12       30.05F
DAVENPORT IA   FAIR      80  61  52 SE8       30.14F
CHICAGO IL     FAIR      78  53  41 E9        30.15F
EAU CLAIRE WI  FAIR      79  61  53 S6        30.10F
LA CROSSE WI   FAIR      80  63  55 S9        30.11F
$$

  *****  SOME NATIONAL WEATHER *****

CITY           SKY/WX    TMP DP  RH WIND       PRES   REMARKS
LA GUARDIA NY  FAIR      82  52  35 NW7       29.92F
RALEIGH NC     PTSUNNY   84  73  69 SW9       30.00F HX  90
ATLANTA GA     PTSUNNY   82  67  60 VRB7      30.04F
NEW ORLEANS LA LGT RAIN  81  76  84 CALM      30.01F
OKLAHOMA CITY  PTSUNNY   86  65  49 S10       30.01F
ALBUQUERQUE NM FAIR      84  23  10 SW23G30   30.04F
SALT LAKE CITY PTSUNNY   63  52  67 NE9       29.96F
LOS ANGELES CA PTSUNNY   65  54  67 W13       29.98S
BOISE ID       FAIR      78  48  34 MISG      29.80F
SEATTLE WA     FAIR      76  52  43 W8        29.80F
$$

*** WEATHER ACROSS MANITOBA...SASKATCHEWAN AND ONTARIO ***
                ***ONTARIO***

CITY           SKY/WX    TMP DP  RH WIND       PRES   REMARKS
GERALDTON      MOSUNNY   77  43  29 VRB2      30.06F
THUNDER BAY    PTSUNNY   64  43  45 NE14      30.09F
SIOUX LOOKOUT  PTSUNNY   79  45  29 W3        30.06F
TORONTO        MOSUNNY   77  46  33 N18       30.07R
BIG TROUT LK   SUNNY     72  37  28 S7        29.98F
PICKLE LAKE    MOSUNNY   81  43  26 W12G18    30.02F
DRYDEN         SUNNY     82  45  26 VRB10     30.04F
KENORA         MOSUNNY   81  52  36 S7        30.04F
$$
                *** MANITOBA***

CITY           SKY/WX    TMP DP  RH WIND       PRES   REMARKS
BRANDON        PTSUNNY   82  54  36 SE18G25   29.92F
DAUPHIN        MOSUNNY   90  52  27 SE14      29.88F
ISLAND LAKE    MOSUNNY   79  37  22 N5        29.96F
PILOT MOUND      N/A     82  50  32 SE18        N/A
THE PAS        SUNNY     84  48  28 E9        29.89F
THOMPSON       MOSUNNY   86  39  19 SW12G23   29.87F
WINNIPEG       PTSUNNY   86  54  32 S13G18    29.95F
LYNN LAKE      SUNNY     88  43  20 W14G20    29.82F
CHURCHILL      MOSUNNY   52  41  66 N13       29.75R
GILLAM         CLOUDY    75  39  27 W13       29.83F
$$
                ***SASKATCHEWAN***

CITY           SKY/WX    TMP DP  RH WIND       PRES   REMARKS
ESTEVAN        CLOUDY    72  55  56 SE14G29   29.89F
KINDERSLEY     MOSUNNY   81  39  22 E5        29.83F
LLOYDMINSTER   PTSUNNY   82  39  21 VRB14G21  29.85F
PRINCE ALBERT  MOSUNNY   86  48  26 VRB5G22   29.88F
REGINA         PTSUNNY   82  54  36 SE14G23   29.85F
YORKTON        MOSUNNY   84  43  23 S10G17    29.88F
N. BATTLEFORD  SUNNY     82  46  28 SE10G17   29.87F
LA RONGE       MOSUNNY   84  46  26 NE9       29.87F
SASKATOON      PTSUNNY   84  46  26 SE10      29.86F
SWIFT CURRENT  PTSUNNY   79  46  31 E14       29.84F
$$
NOTE: THESE ARE AUTOMATED STATIONS WITH LIMITED QUALITY CONTROL
      "FAIR" INDICATES FEW OR NO CLOUDS BELOW 12,000 FEET WITH NO
      SIGNIFICANT WEATHER AND/OR OBSTRUCTIONS TO VISIBILITY.
      SKY/WX - SKY CONDITION AND SIGNIFICANT WEATHER.
      TMP - AIR TEMPERATURE.    DP   - DEWPOINT TEMPERATURE.
      RH  - RELATIVE HUMIDITY.  PRES - PRESSURE.
      HX  - HEAT INDEX.         WCI  - WIND CHILL INDEX.
$



USA.gov is the U.S. government's official web portal to all federal, state and local government web resources and services.